Location: Caltech
(34.1382°N, 118.1253°W)
Time: 14:52:20
(UTC-07:00)

UOSAT-12 - Visible Passes

Search period start: 24 March 2017 00:00
Search period end: 03 April 2017 00:00
Orbit: 608 x 646 km, 64.6° (Epoch: 23 March)

Date Brightness Start Highest point End Pass type
(mag) Time Alt. Az. Time Alt. Az. Time Alt. Az.
31 Mar 10.0 22:13:41 10° N 22:13:59 11° N 22:13:59 11° N visible
01 Apr 10.1 22:33:02 10° NNW 22:33:27 12° NNW 22:33:27 12° NNW visible
02 Apr 9.4 21:14:10 10° N 21:15:39 14° NNE 21:15:39 14° NNE visible
02 Apr 10.3 22:52:53 10° NW 22:52:57 10° NW 22:52:57 10° NW visible
